| time (UTC) | temp F | wind direction | speed knots | gust knots | rain 1hr in | rain 24hr in | rain mn in | humidity % | barometer mb |
| 20260504223110 | 70 | 317 | 1.7 | 1.7 | 0.00 | 0.00 | 0.00 | 34 | 1014.4 |
| 20260504222109 | 71 | 332 | 0.9 | 1.7 | 0.00 | 0.00 | 0.00 | 34 | 1014.4 |
| 20260504221110 | 71 | 278 | 1.7 | 1.7 | 0.00 | 0.00 | 0.00 | 33 | 1014.6 |
| 20260504220110 | 72 | 322 | 0.0 | 0.0 | 0.00 | 0.00 | 0.00 | 34 | 1014.4 |
| 20260504215109 | 72 | 92 | 0.9 | 0.9 | 0.00 | 0.00 | 0.00 | 33 | 1014.4 |
| 20260504214110 | 72 | 315 | 1.7 | 1.7 | 0.00 | 0.00 | 0.00 | 32 | 1014.4 |
| 20260504213111 | 72 | 236 | 0.9 | 1.7 | 0.00 | 0.00 | 0.00 | 32 | 1014.4 |
| 20260504212110 | 71 | 308 | 0.9 | 0.9 | 0.00 | 0.00 | 0.00 | 33 | 1014.5 |
| 20260504211111 | 73 | 265 | 2.6 | 3.5 | 0.00 | 0.00 | 0.00 | 31 | 1014.5 |
| 20260504210111 | 72 | 316 | 0.9 | 1.7 | 0.00 | 0.00 | 0.00 | 34 | 1014.3 |
| 20260504205111 | 73 | 329 | 0.9 | 0.9 | 0.00 | 0.00 | 0.00 | 32 | 1014.4 |
| 20260504204111 | 73 | 318 | 1.7 | 2.6 | 0.00 | 0.00 | 0.00 | 32 | 1014.3 |
| 20260504203110 | 74 | 293 | 1.7 | 1.7 | 0.00 | 0.00 | 0.00 | 32 | 1014.5 |
| 20260504202110 | 73 | 318 | 2.6 | 5.2 | 0.00 | 0.00 | 0.00 | 31 | 1014.4 |
| 20260504201110 | 74 | 338 | 1.7 | 2.6 | 0.00 | 0.00 | 0.00 | 31 | 1014.5 |
| 20260504200110 | 72 | 175 | 1.7 | 2.6 | 0.00 | 0.00 | 0.00 | 31 | 1014.4 |
| 20260504195110 | 72 | 275 | 2.6 | 3.5 | 0.00 | 0.00 | 0.00 | 31 | 1014.6 |
| 20260504194108 | 73 | 279 | 0.9 | 1.7 | 0.00 | 0.00 | 0.00 | 31 | 1014.7 |
| 20260504193110 | 73 | 286 | 0.9 | 1.7 | 0.00 | 0.00 | 0.00 | 29 | 1014.7 |
| 20260504192109 | 72 | 331 | 1.7 | 3.5 | 0.00 | 0.00 | 0.00 | 32 | 1014.5 |
| 20260504191109 | 72 | 318 | 2.6 | 3.5 | 0.00 | 0.00 | 0.00 | 32 | 1014.6 |
| 20260504190110 | 72 | 293 | 2.6 | 2.6 | 0.00 | 0.00 | 0.00 | 30 | 1014.8 |
| 20260504185109 | 72 | 276 | 2.6 | 3.5 | 0.00 | 0.00 | 0.00 | 31 | 1014.9 |
| 20260504184109 | 71 | 292 | 3.5 | 3.5 | 0.00 | 0.00 | 0.00 | 30 | 1015.2 |
| 20260504183110 | 72 | 275 | 1.7 | 1.7 | 0.00 | 0.00 | 0.00 | 29 | 1015.0 |
| 20260504182110 | 72 | 314 | 2.6 | 2.6 | 0.00 | 0.00 | 0.00 | 33 | 1015.3 |
| 20260504181109 | 72 | 298 | 0.9 | 1.7 | 0.00 | 0.00 | 0.00 | 30 | 1015.2 |
| 20260504180110 | 71 | 287 | 0.9 | 1.7 | 0.00 | 0.00 | 0.00 | 31 | 1015.1 |
| 20260504175110 | 70 | 302 | 2.6 | 2.6 | 0.00 | 0.00 | 0.00 | 32 | 1015.2 |
| 20260504174111 | 70 | 259 | 1.7 | 1.7 | 0.00 | 0.00 | 0.00 | 34 | 1015.1 |
| 20260504173110 | 70 | 312 | 1.7 | 1.7 | 0.00 | 0.00 | 0.00 | 31 | 1015.3 |
| 20260504172109 | 70 | 311 | 1.7 | 2.6 | 0.00 | 0.00 | 0.00 | 31 | 1015.3 |
| 20260504171111 | 71 | 285 | 3.5 | 6.1 | 0.00 | 0.00 | 0.00 | 32 | 1015.5 |
| 20260504170111 | 70 | 313 | 0.9 | 1.7 | 0.00 | 0.00 | 0.00 | 35 | 1015.8 |
| 20260504160111 | 68 | 221 | 2.6 | 3.5 | 0.00 | 0.00 | 0.00 | 36 | 1016.0 |
| 20260504151110 | 66 | 322 | 0.9 | 0.9 | 0.00 | 0.00 | 0.00 | 36 | 1016.8 |
| 20260504150110 | 66 | 282 | 0.9 | 2.6 | 0.00 | 0.00 | 0.00 | 37 | 1016.7 |
| 20260504141110 | 64 | 316 | 0.9 | 0.9 | 0.00 | 0.00 | 0.00 | 40 | 1017.2 |
| 20260504140110 | 65 | 286 | 3.5 | 6.1 | 0.00 | 0.00 | 0.00 | 38 | 1017.3 |
| 20260504130110 | 59 | 312 | 0.9 | 0.9 | 0.00 | 0.00 | 0.00 | 43 | 1018.0 |
| 20260504120110 | 53 | 315 | 0.9 | 1.7 | 0.00 | 0.00 | 0.00 | 50 | 1018.6 |
| 20260504110109 | 50 | 306 | 0.0 | 0.9 | 0.00 | 0.00 | 0.00 | 54 | 1018.3 |
| 20260504100110 | 44 | 318 | 0.0 | 0.0 | 0.00 | 0.00 | 0.00 | 68 | 1018.3 |
| 20260504090109 | 44 | 278 | 0.0 | 0.9 | 0.00 | 0.00 | 0.00 | 69 | 1018.2 |
| 20260504081109 | 44 | 318 | 0.0 | 0.0 | 0.00 | 0.00 | 0.00 | 70 | 1018.4 |
| 20260504080110 | 44 | 319 | 0.0 | 0.0 | 0.00 | 0.00 | 0.00 | 67 | 1018.3 |
| 20260504070110 | 44 | 320 | 0.0 | 0.0 | 0.00 | 0.00 | 0.00 | 62 | 1018.3 |
| 20260504060111 | 43 | 291 | 0.9 | 0.9 | 0.00 | 0.00 | 0.00 | 67 | 1018.3 |
| 20260504050110 | 41 | 315 | 0.0 | 0.0 | 0.00 | 0.00 | 0.00 | 70 | 1018.4 |
| 20260504045110 | 38 | 318 | 0.0 | 0.0 | 0.00 | 0.00 | 0.00 | 79 | 1018.3 |
| 20260504044110 | 36 | 324 | 0.0 | 0.0 | 0.00 | 0.00 | 0.00 | 82 | 1018.3 |
| 20260504043109 | 36 | 324 | 0.0 | 0.0 | 0.00 | 0.00 | 0.00 | 82 | 1018.5 |
| 20260504042111 | 36 | 319 | 0.0 | 0.0 | 0.00 | 0.00 | 0.00 | 83 | 1018.3 |
| 20260504041109 | 36 | 317 | 0.0 | 0.0 | 0.00 | 0.00 | 0.00 | 83 | 1018.1 |
| 20260504040111 | 36 | 320 | 0.0 | 0.0 | 0.00 | 0.00 | 0.00 | 83 | 1018.1 |
| 20260504035110 | 36 | 323 | 0.0 | 0.0 | 0.00 | 0.00 | 0.03 | 81 | 1018.1 |
| 20260504034109 | 37 | 325 | 0.0 | 0.0 | 0.00 | 0.00 | 0.03 | 77 | 1018.0 |
| 20260504033109 | 36 | 319 | 0.0 | 0.0 | 0.00 | 0.00 | 0.03 | 81 | 1018.0 |
| 20260504032110 | 37 | 314 | 0.0 | 0.0 | 0.00 | 0.00 | 0.03 | 78 | 1018.0 |
| 20260504031111 | 37 | 314 | 0.0 | 0.0 | 0.00 | 0.00 | 0.03 | 78 | 1018.0 |
| 20260504030110 | 37 | 316 | 0.0 | 0.0 | 0.00 | 0.00 | 0.03 | 79 | 1018.0 |
| 20260504025109 | 37 | 316 | 0.0 | 0.0 | 0.00 | 0.00 | 0.03 | 79 | 1017.9 |
| 20260504024110 | 37 | 318 | 0.0 | 0.0 | 0.00 | 0.00 | 0.03 | 77 | 1017.8 |
| 20260504023109 | 38 | 320 | 0.0 | 0.0 | 0.00 | 0.00 | 0.03 | 77 | 1017.8 |
| 20260504022109 | 38 | 310 | 0.0 | 0.0 | 0.00 | 0.00 | 0.03 | 77 | 1017.8 |
| 20260504021111 | 39 | 315 | 0.0 | 0.0 | 0.00 | 0.00 | 0.03 | 77 | 1017.8 |
| 20260504020109 | 39 | 315 | 0.0 | 0.0 | 0.00 | 0.00 | 0.03 | 76 | 1017.6 |
| 20260504015109 | 39 | 314 | 0.0 | 0.0 | 0.00 | 0.00 | 0.03 | 75 | 1017.6 |
| 20260504014110 | 39 | 315 | 0.0 | 0.0 | 0.00 | 0.00 | 0.03 | 74 | 1017.7 |
| 20260504013111 | 40 | 314 | 0.0 | 0.0 | 0.00 | 0.00 | 0.03 | 71 | 1017.7 |
| 20260504012109 | 40 | 315 | 0.0 | 0.0 | 0.00 | 0.00 | 0.03 | 69 | 1017.5 |
| 20260504011110 | 41 | 313 | 0.0 | 0.0 | 0.00 | 0.00 | 0.03 | 69 | 1017.6 |
| 20260504010109 | 41 | 315 | 0.0 | 0.0 | 0.00 | 0.00 | 0.03 | 66 | 1017.4 |
| 20260504005110 | 42 | 300 | 0.0 | 0.0 | 0.00 | 0.00 | 0.03 | 65 | 1017.0 |
| 20260504004110 | 43 | 315 | 0.0 | 0.0 | 0.00 | 0.00 | 0.03 | 63 | 1017.1 |
| 20260504003109 | 44 | 312 | 0.0 | 0.0 | 0.00 | 0.00 | 0.03 | 60 | 1017.0 |
| 20260504002111 | 45 | 312 | 0.0 | 0.0 | 0.00 | 0.00 | 0.03 | 60 | 1016.8 |
| 20260504001111 | 46 | 312 | 0.0 | 0.0 | 0.00 | 0.00 | 0.03 | 54 | 1016.7 |
| 20260504000110 | 47 | 312 | 0.0 | 0.0 | 0.00 | 0.00 | 0.03 | 50 | 1016.5 |
| 20260503235109 | 49 | 313 | 0.0 | 0.0 | 0.00 | 0.00 | 0.03 | 47 | 1016.7 |
| 20260503234109 | 50 | 313 | 0.0 | 0.0 | 0.00 | 0.00 | 0.03 | 47 | 1016.3 |
| 20260503233110 | 50 | 309 | 0.9 | 0.9 | 0.00 | 0.00 | 0.03 | 46 | 1016.2 |
| 20260503232111 | 50 | 315 | 0.0 | 0.9 | 0.00 | 0.00 | 0.03 | 42 | 1016.3 |
| 20260503231111 | 51 | 315 | 0.9 | 0.9 | 0.00 | 0.00 | 0.03 | 43 | 1016.1 |
| 20260503230110 | 51 | 326 | 2.6 | 2.6 | 0.00 | 0.00 | 0.03 | 41 | 1016.1 |
| 20260503225115 | 51 | 310 | 2.6 | 3.5 | 0.00 | 0.00 | 0.03 | 41 | 1016.0 |
| 20260503224111 | 51 | 322 | 0.9 | 1.7 | 0.00 | 0.00 | 0.03 | 44 | 1015.9 |